Hourly Weather Roundup
Issued by NWS Central Illinois

Home | Current Version | Previous Version | Text Only | Print | Product List | Glossary On
Versions: 1 2 3 4 5 6 7 8 9 10 11 12 13 14 15 16 17 18 19 20 21 22 23 24 25 26 27 28 29 30 31 32 33 34 35 36 37 38 39 40 41 42 43 44 45 46 47 48 49 50
000
NZUS43 KILX 222010
HWRILX

AREA WEATHER ROUNDUP
NATIONAL WEATHER SERVICE, LINCOLN IL
300 PM CDT FRI AUG 22 2014


CITY           SKY/WX    TMP DP  RH WIND       PRES   REMARKS
BLOOMINGTON    CLOUDY    80  73  79 VRB6      29.97S HX  84
CHAMPAIGN      CLOUDY    81  74  79 SE5       29.98S HX  86
DECATUR        CLOUDY    84  75  74 W10       29.95F HX  92
FLORA          CLOUDY    84  74  73 SW9       29.98F HX  91
GALESBURG      MOSUNNY   85  76  74 S14       29.94F HX  95
JACKSONVILLE   MOSUNNY   89  78  70 SW7       29.95F HX 102
LACON          CLOUDY    80  73  79 SW6       29.93F HX  84
LAWRENCEVILLE  CLOUDY    86  76  71 SW14      29.95F HX  96
LITCHFIELD     CLOUDY    85  78  80 S7        29.97F HX  95
$$


CITY           SKY/WX    TMP DP  RH WIND       PRES   REMARKS
LINCOLN        PTSUNNY   85  75  72 S3        29.91S HX  94
MACOMB         MOSUNNY   85  75  72 SW8       29.96F HX  94
MATTOON        CLOUDY    85  74  69 S13       29.94F HX  92
MT CARMEL AP   CLOUDY    86  77  74 SW9       29.97F HX  97
OLNEY-NOBLE AP CLOUDY    84  77  79 CALM      29.97F HX  94
PARIS          CLOUDY    84  77  79 E3        29.98F HX  94
PEORIA         PTSUNNY   85  73  67 SW12      29.94R HX  91
PONTIAC        CLOUDY    81  75  83 W5        29.95S HX  86
RANTOUL        CLOUDY    83  71  67 CALM      29.98R HX  87
ROBINSON       CLOUDY    87  79  77 SW13      29.96S HX 100
SPRINGFIELD    MOSUNNY   87  75  67 SW9       29.95F HX  96
TAYLORVILLE    PTSUNNY   82  75  78 S13       29.95F HX  89
$$

...REGIONAL REPORTS...


CITY           SKY/WX    TMP DP  RH WIND       PRES   REMARKS
CHICAGO O`HARE PTSUNNY   85  68  56 SW5       29.92F HX  88
KANKAKEE       CLOUDY    81  74  79 CALM      29.95F HX  86
MOLINE         MOSUNNY   87  73  62 SW10      29.92F HX  94
MOUNT VERNON   CLOUDY    88  75  66 SW7       29.98F HX  97
PITTSFIELD     MOSUNNY   89  74  62 S5        29.97F HX  98
QUINCY         MOSUNNY   88  74  63 S7        29.94F HX  96
ROCKFORD       PTSUNNY   84  75  74 W7        29.94F HX  92
$$


CITY           SKY/WX    TMP DP  RH WIND       PRES   REMARKS
BURLINGTON     MOSUNNY   86  76  71 S8        29.92F HX  96
CEDAR RAPIDS   MOSUNNY   85  77  77 S8        29.92F HX  95
DES MOINES     CLOUDY    88  78  72 CALM      29.91F HX 101
KIRKSVILLE     PTSUNNY   88  77  69 S6        29.95F HX 100
OTTUMWA        PTSUNNY   85  77  77 SE3       29.93R HX  95
ST LOUIS       PTSUNNY   94  73  50 SW10G16   29.96F HX 103
$$


CITY           SKY/WX    TMP DP  RH WIND       PRES   REMARKS
TERRE HAUTE    CLOUDY    84  74  71 SE3       29.97F HX  91
EVANSVILLE     PTSUNNY   91  74  57 W10       29.98F HX 100
INDIANAPOLIS   CLOUDY    85  68  56 NW7       29.98F HX  88
LAFAYETTE      PTSUNNY   81  73  76 VRB3      29.96F HX  86
MADISON        MOSUNNY   86  73  65 S6        29.92F HX  93
MILWAUKEE      MOSUNNY   83  73  72 CALM      29.93F HX  89
$$




USA.gov is the U.S. government's official web portal to all federal, state and local government web resources and services.